Content
SEND FEEDBACK

Daily
Averages
Monthly
Summary
United States of America

TAFT, CALIFORNIA


Home > North America > United States > California
Elevation: 659 feet     Latitude: 35 05N     Longitude: 119 23W

WEATHER
 
SELECT A DAY
Number of Records: 182,040;   Date Range: 1/1/95 - 9/18/14
 
SHARE

PRINT THIS DATA

[ ← Previous Day ]
WEATHER ALMANAC - FEBRUARY 13, 2013
[ Next Day → ]
[ °C ]   °F
Weather ElementAverageHighLow
Temperature50.3 °F64 °F (2:54 pm)37 °F (3:54 am)
Dewpoint31.4 °F35.1 °F (5:54 pm)28 °F (2:54 am)
Humidity50.5 %70 % (3:54 am)30 % (1:54 pm)
Barometer30.27 in30.34 in (7:54 am)30.21 in (3:54 pm)
Wind Speed3.9 mph8.1 mph (3:54 pm)
Wind Gust16.1 mph (3:54 pm)
Weather ElementAverage
Visibility9.6 mi
Wind DirectionSSE (148.7 °)

Weather ElementTotal
Precipitation---
Heating Degree Days14.5 (Base 65)
Growing Degree Days0.5 (Base 50)
Averaged from 23 records on February 13, 2013
WEATHER CONDITIONS BREAKOUT
WIND DIRECTION BREAKOUT
WEATHER BY HOUR - FEBRUARY 13, 2013
[ °C ]   °F
Local TimeTemperatureDewpointHumidityBarometerVisibilityWind DirectionWind SpeedGust SpeedPrecipitationEventsConditions
1:54 AM41.0 °F30.0 °F65 %30.31 in10.0 miSSE (160°)4.6 mphClear
2:54 AM37.9 °F28.0 °F68 %30.31 in10.0 miNorth (360°)3.5 mphClear
3:54 AM37.0 °F28.0 °F70 %30.30 in10.0 miCalmClear
4:54 AM42.1 °F28.9 °F60 %30.30 in10.0 miEast (90°)4.6 mphClear
5:54 AM39.0 °F28.0 °F65 %30.32 in10.0 miSouth (170°)3.5 mphClear
6:54 AM37.9 °F28.0 °F68 %30.33 in10.0 miCalmClear
7:54 AM43.0 °F30.0 °F60 %30.34 in10.0 miSE (130°)4.6 mphClear
8:54 AM48.0 °F30.9 °F52 %30.34 in10.0 miSE (130°)6.9 mphClear
9:54 AM52.0 °F30.9 °F45 %30.33 in10.0 miSE (140°)5.8 mphClear
10:54 AM54.0 °F32.0 °F43 %30.32 in10.0 miSW (230°)3.5 mphClear
11:54 AM59.0 °F30.9 °F35 %30.29 in9.0 miCalmClear
12:54 PM60.1 °F30.9 °F33 %30.26 in10.0 miCalmClear
1:54 PM63.0 °F30.9 °F30 %30.23 in10.0 miWest (280°)4.6 mphClear
2:54 PM64.0 °F32.0 °F30 %30.22 in10.0 miNNW (330°)3.5 mphClear
3:54 PM64.0 °F33.1 °F31 %30.21 in8.0 miNNW (340°)8.1 mph16.1 mphClear
4:54 PM62.1 °F33.1 °F34 %30.21 in9.0 miNW (310°)6.9 mphClear
5:54 PM57.0 °F35.1 °F44 %30.22 in9.0 miNorth (350°)5.8 mphClear
6:54 PM54.0 °F34.0 °F47 %30.23 in10.0 miENE (60°)5.8 mphClear
7:54 PM48.9 °F34.0 °F56 %30.22 in9.0 miEast (80°)3.5 mphClear
8:54 PM53.1 °F34.0 °F48 %30.23 in9.0 miESE (110°)3.5 mphClear
9:54 PM46.9 °F33.1 °F59 %30.23 in9.0 miCalmClear
10:54 PM46.9 °F33.1 °F59 %30.23 in9.0 miENE (60°)5.8 mphClear
11:54 PM46.9 °F33.1 °F59 %30.22 in9.0 miEast (90°)4.6 mphClear
Hourly data recorded from KBFL, located miles away from Taft, California







STORIES FROM OUR PARTNERS